Wenatchee, WA
on Tuesday, January 29, 2013

Tuesday
Previous Day Next Day
Daily Summary
 ActualAverageRecord
Temperature
Mean Temperature °F 29°F  
Max Temperature 34°F 35°F 53°F (1974)
Min Temperature 25°F 23°F -9°F (1969)
Degree Days
Heating Degree Days 35 36  
Month to date heating degree days 1217 1088  
Since 1 July heating degree days 3880 4186  
Cooling Degree Days 0 0  
Month to date cooling degree days 0 0  
Year to date cooling degree days 0 0  
Moisture
Dew Point 25°F   
Average Humidity 78    
Maximum Humidity 89    
Minimum Humidity 60    
Precipitation
Precipitation 0.09 in 0.05 in 0.39 in (1967)
Month to date precipitation 1.46 1.78  
Year to date precipitation 1.46 1.78  
Snow
Snow 1.00 in 0.40 in in ()
Month to date snowfall 13.5 14.8  
Since 1 July snowfall 43.8 39.7  
Snow Depth 6.00 in   
Wind
Wind Speed 2 mph   
Max Wind Speed 5 mph   
Max Gust Speed mph   
Visibility 9 miles   
Events     

Key: T is trace of precipitation, MM is missing value
Source: NWS Daily Summary
Time(PST)TemperatureDew PointHumidity Pressure Visibility Wind DirectionWind SpeedGust SpeedPrecipitationEvents Conditions
12:55 AM 27.0°F 23.0°F 85% 29.92 in 8.0 miles SW 4.6 mph - N/A   Clear
1:55 AM 27.0°F 23.0°F 85% 29.95 in 7.0 miles Calm Calm - N/A   Clear
2:55 AM 27.0°F 24.1°F 89% 29.97 in 8.0 miles Calm Calm - N/A   Clear
3:55 AM 26.1°F 23.0°F 88% 30.00 in 9.0 miles East 3.5 mph - N/A   Clear
4:55 AM 25.0°F 21.9°F 88% 30.02 in 9.0 miles Calm Calm - N/A   Clear
5:55 AM 26.1°F 23.0°F 88% 30.05 in 9.0 miles Calm Calm - N/A   Clear
6:55 AM 25.0°F 21.9°F 88% 30.09 in 9.0 miles Calm Calm - N/A   Clear
7:55 AM 25.0°F 21.9°F 88% 30.13 in 7.0 miles Calm Calm - N/A   Clear
8:55 AM 26.1°F 23.0°F 88% 30.17 in 7.0 miles ESE 4.6 mph - 0.00 in   Partly Cloudy
9:55 AM 28.9°F 25.0°F 85% 30.19 in 9.0 miles Calm Calm - N/A   Partly Cloudy
10:55 AM 33.1°F 26.1°F 75% 30.22 in 10.0 miles Calm Calm - N/A   Overcast
11:55 AM 33.1°F 26.1°F 75% 30.22 in 10.0 miles Calm Calm - N/A   Overcast
12:55 PM 36.0°F 27.0°F 70% 30.21 in 10.0 miles Calm Calm - N/A   Overcast
1:55 PM 36.0°F 26.1°F 67% 30.21 in 10.0 miles South 4.6 mph - N/A   Partly Cloudy
2:55 PM 37.9°F 26.1°F 62% 30.20 in 10.0 miles Calm Calm - N/A   Clear
3:55 PM 39.0°F 26.1°F 60% 30.20 in 10.0 miles Calm Calm - N/A   Clear
4:55 PM 37.0°F 26.1°F 65% 30.19 in 10.0 miles Calm Calm - N/A   Clear
5:55 PM 34.0°F 26.1°F 73% 30.18 in 10.0 miles ENE 4.6 mph - N/A   Clear
6:55 PM 35.1°F 27.0°F 72% 30.15 in 10.0 miles East 3.5 mph - N/A   Clear
7:55 PM 35.1°F 27.0°F 72% 30.16 in 10.0 miles Calm Calm - N/A   Clear
8:55 PM 34.0°F 26.1°F 73% 30.17 in 10.0 miles Calm Calm - N/A   Clear
9:55 PM 32.0°F 25.0°F 75% 30.15 in 10.0 miles Variable 3.5 mph - N/A   Clear
10:55 PM 30.9°F 25.0°F 79% 30.16 in 10.0 miles North 3.5 mph - N/A   Clear
11:55 PM 33.1°F 26.1°F 75% 30.17 in 10.0 miles East 4.6 mph - N/A   Clear
Moon Phase
Jan. 29 Feb. 03 Feb. 10 Feb. 17 Feb. 25
Sunrise:07:30 AM (PST) Moon Rise:08:16 PM (PST)1/29
Sunset:04:58 PM (PST) Moon Set:08:14 AM (PST)1/29

Copyright © 2014 The Weather Underground, Inc.